Flag for China Weather past 2 weeks in Lanzhou, Gansu, China

Now
61 °F

Clear.


Feels Like: 61 °F
Forecast: 60 / 85 °F
Wind: 3 mph from Northwest

Location: Lanzhou / Zhongchuan

Current Time: Aug 2, 2014 at 6:34:14 AM

Latest Report: Aug 2, 2014 at 6:00 AM


Visibility: 10 mi

Pressure: 30.01 "Hg

Humidity: 63%

Dew point: 48 °F

Location of LanzhouLocation

Historic Weather in Lanzhou — Graph

°F

Lanzhou temperature yesterday

Maximum temperature yesterday: 86 °F (at 6:00 PM)
Minimum temperature yesterday: 57 °F (at 4:00 AM)
Average temperature yesterday: 71 °F

Past Weeks' High & Low Weather Summary

 TemperatureHumidityPressure
High90 °F (Jul 29, 5:00 PM)100% (Jul 21, 10:00 PM)30.21 "Hg (Jul 21, 10:00 PM)
Low52 °F (Jul 24, 1:00 AM)21% (Aug 1, 8:00 PM)29.80 "Hg (Jul 18, 4:00 PM)
Average69 °F63%29.98 "Hg
* Reported Jul 18 5:00 AM — Aug 2 5:00 AM, Lanzhou, Weather by CustomWeather, © 2014

Note: Actual official high and low records may vary slightly from our data, if they occured in-between our weather recording intervals... More about our weather records

Advertising

Lanzhou weather history for previous 24 hours

 ConditionsComfort  
Time TempWeatherWind HumidityBarometerVisibility
5:00 AM
Aug 2
64 °FClear.3 mph56%30.01 "Hg10 mi
4:00 AM66 °FClear.1 mph49%30.01 "Hg10 mi
3:00 AM68 °FClear.1 mph43%30.01 "Hg10 mi
2:00 AM70 °FClear.3 mph40%30.01 "Hg10 mi
1:00 AM73 °FClear.8 mph36%30.04 "Hg10 mi
12:00 AM75 °FClear.13 mph31%30.04 "Hg5 mi
11:00 PM
Aug 1
77 °FClear.15 mph28%30.04 "Hg4 mi
10:00 PM77 °FPassing clouds.8 mph24%30.04 "HgN/A
9:00 PM79 °FPartly sunny.13 mph21%29.98 "HgN/A
8:00 PM79 °FPartly sunny.17 mph21%29.95 "HgN/A
7:00 PM82 °FPartly sunny.17 mph23%29.95 "HgN/A
6:00 PM86 °FPassing clouds.10 mph29%29.92 "HgN/A
5:00 PM84 °FScattered clouds.15 mph31%29.95 "HgN/A
4:00 PM84 °FPassing clouds.3 mph40%29.95 "HgN/A
3:00 PM84 °FPassing clouds.8 mph37%29.95 "HgN/A
2:00 PM81 °FPassing clouds.6 mph42%29.98 "HgN/A
1:00 PM79 °FPassing clouds.3 mph54%29.98 "HgN/A
12:00 PM75 °FPassing clouds.6 mph57%30.01 "HgN/A
11:00 AM73 °FPassing clouds.6 mph65%30.01 "HgN/A
10:00 AM72 °FPassing clouds.8 mph65%30.01 "HgN/A
9:00 AM68 °FClear.8 mph73%30.01 "Hg4 mi
8:00 AM64 °FFog.1 mph83%29.98 "Hg1 mi
7:00 AM59 °FFog.1 mph88%29.98 "Hg3 mi
6:00 AM57 °FFog.No wind94%29.98 "Hg3 mi
Weather by CustomWeather, © 2014

See weather overviewHow to use our weather pages